CST,Max TemperatureF,Mean TemperatureF,Min TemperatureF,Max Dew PointF,MeanDew PointF,Min DewpointF,Max Humidity, Mean Humidity, Min Humidity, Max Sea Level PressureIn, Mean Sea Level PressureIn, Min Sea Level PressureIn, Max VisibilityMiles, Mean VisibilityMiles, Min VisibilityMiles, Max Wind SpeedMPH, Mean Wind SpeedMPH, Max Gust SpeedMPH,PrecipitationIn, CloudCover, Events, WindDirDegrees
2014-2-1,80,63,46,37,34,28,66,40,15,30.21,30.05,29.76,10,9,6,14,4,,0.00,3,,296
2014-2-2,82,62,42,48,33,28,71,39,14,30.24,30.04,29.72,10,9,6,8,2,,0.00,0,,297
2014-2-3,82,64,46,43,38,32,71,42,20,30.24,30.03,29.72,10,9,6,9,4,,0.00,1,,218
2014-2-4,82,64,46,46,37,27,87,45,13,30.20,30.04,29.68,10,8,6,17,4,,0.00,1,,291
2014-2-5,82,62,42,39,36,34,70,39,19,30.27,30.05,29.72,10,9,7,7,3,,0.00,1,,222
2014-2-6,98,72,46,43,38,32,76,44,10,30.27,30.06,29.74,10,8,6,12,3,,0.00,0,,266
2014-2-7,82,64,46,43,37,32,76,42,19,30.29,30.10,29.81,10,8,6,13,3,,0.00,1,,264
2014-2-8,82,63,44,37,32,25,62,35,13,30.33,30.12,29.81,10,9,6,9,3,,0.00,3,,42
2014-2-9,84,65,46,39,35,30,71,36,15,30.30,30.08,29.74,10,9,7,9,2,,0.00,0,,81
2014-2-10,84,65,46,34,31,28,57,31,14,30.30,30.07,29.71,10,9,6,10,4,,0.00,1,,318
2014-2-11,82,64,46,36,29,23,54,30,12,30.23,30.04,29.71,10,8,6,21,7,,0.00,2,,273
2014-2-12,82,63,44,32,23,16,57,26,8,30.27,30.09,29.75,10,9,8,13,4,,0.00,1,,293
2014-2-13,84,64,44,41,25,18,76,28,10,30.27,30.09,29.76,10,9,8,12,4,,0.00,0,,11
2014-2-14,84,64,44,32,27,23,57,29,11,30.30,30.10,29.79,10,9,8,15,6,,0.00,1,,329
2014-2-15,86,67,48,30,26,21,50,25,11,30.35,30.15,29.84,10,9,8,13,6,,0.00,5,,110
2014-2-16,84,64,44,28,24,19,53,24,10,30.33,30.13,29.78,10,9,8,9,2,,0.00,1,,76
2014-2-17,87,66,46,30,27,19,50,25,11,30.33,30.12,29.74,10,9,8,17,3,,0.00,0,,90
2014-2-18,82,64,46,36,27,21,54,26,12,30.36,30.09,29.74,10,9,8,8,5,,0.00,2,,135
2014-2-19,86,68,50,36,32,28,50,31,14,30.24,30.02,29.65,10,8,6,10,3,,0.00,5,,319
2014-2-20,82,65,48,39,34,28,66,34,15,30.24,30.04,29.70,10,8,6,21,3,,0.00,4,,279
2014-2-21,84,67,50,46,39,30,62,39,20,30.27,30.05,29.74,9,8,6,12,4,,0.00,5,,122
2014-2-22,82,68,53,46,40,34,72,43,19,30.27,30.06,29.75,10,8,5,12,3,,0.00,6,,217
2014-2-23,80,66,51,43,40,37,62,41,24,30.30,30.08,29.75,10,9,8,9,2,,0.00,5,,242
2014-2-24,82,66,50,43,40,36,71,41,19,30.27,30.07,29.73,10,8,6,10,3,,0.00,2,,296
2014-2-25,80,64,48,39,37,36,62,38,21,30.30,30.09,29.77,10,9,8,12,3,,0.00,5,,272
2014-2-26,84,67,50,39,37,34,66,38,16,30.24,30.01,29.68,10,9,7,16,2,,0.00,2,,248
2014-2-27,84,66,48,37,31,21,66,31,11,30.21,30.01,29.63,10,9,7,14,3,,0.00,1,,285
2014-2-28,86,66,46,36,31,25,58,28,14,30.24,30.04,29.75,10,8,6,10,5,,0.00,0,,298